Content
SEND FEEDBACK

Daily
Averages
Monthly
Summary
United States of America

SOUTHPORT, NORTH CAROLINA


Home > North America > United States > North Carolina
Elevation: 38 feet     Latitude: 34 00N     Longitude: 078 01W

WEATHER
 
SELECT A DAY
Number of Records: 136,625;   Date Range: 8/21/01 - 8/28/14
 
SHARE

PRINT THIS DATA

[ ← Previous Day ]
WEATHER ALMANAC - JANUARY 7, 2013
[ Next Day → ]
[ °C ]   °F
Weather ElementAverageHighLow
Temperature43.9 °F50.5 °F (11:35 am)35.8 °F (6:55 am)
Dewpoint34.8 °F41.9 °F (12:55 am)28.6 °F (11:35 am)
Humidity72.9 %97 % (5:15 am)43 % (11:35 am)
Barometer30.33 in30.42 in (6:35 pm)30.16 in (12:55 am)
Wind Speed6.3 mph12.7 mph (2:35 am)
Wind Gust19.6 mph (11:55 am)
Weather ElementAverage
Visibility9.3 mi
Wind DirectionSSE (148.6 °)

Weather ElementTotal
Precipitation---
Heating Degree Days21.9 (Base 65)
Averaged from 65 records on January 7, 2013
WEATHER CONDITIONS BREAKOUT
WIND DIRECTION BREAKOUT
WEATHER BY HOUR - JANUARY 7, 2013
[ °C ]   °F
Local TimeTemperatureDewpointHumidityBarometerVisibilityWind DirectionWind SpeedGust SpeedPrecipitationEventsConditions
12:55 AM44.8 °F41.9 °F90 %30.16 in10.0 miNW (320°)6.9 mphScattered Clouds
1:15 AM44.6 °F41.9 °F90 %30.17 in10.0 miNNW (340°)6.9 mphScattered Clouds
1:35 AM44.2 °F41.9 °F91 %30.17 in10.0 miNNW (340°)8.1 mphClear
1:55 AM43.9 °F41.4 °F91 %30.18 in10.0 miNorth (350°)9.2 mphScattered Clouds
2:15 AM43.0 °F41.0 °F93 %30.18 in10.0 miNorth (350°)6.9 mphScattered Clouds
2:35 AM42.1 °F39.7 °F91 %30.19 in10.0 miNorth (350°)12.7 mphClear
2:55 AM41.4 °F39.6 °F93 %30.19 in7.0 miNorth (350°)6.9 mphClear
3:15 AM41.0 °F39.2 °F93 %30.20 in7.0 miNorth (350°)8.1 mphClear
3:35 AM40.3 °F38.8 °F95 %30.21 in7.0 miNorth (350°)5.8 mphClear
3:55 AM39.6 °F38.3 °F95 %30.21 in7.0 miNorth (360°)5.8 mphClear
4:15 AM39.2 °F37.6 °F94 %30.21 in7.0 miNorth (350°)3.5 mphClear
4:35 AM38.5 °F37.2 °F95 %30.22 in7.0 miNorth (350°)3.5 mphClear
4:55 AM37.8 °F36.7 °F96 %30.22 in5.0 miNorth (350°)4.6 mphClear
5:15 AM37.6 °F36.7 °F97 %30.23 in7.0 miNorth (350°)4.6 mphClear
5:35 AM37.4 °F36.5 °F97 %30.24 in7.0 miNorth (360°)4.6 mphClear
5:55 AM36.9 °F36.0 °F97 %30.24 in5.0 miNorth (350°)6.9 mphClear
6:15 AM36.7 °F35.8 °F97 %30.26 in5.0 miNorth (360°)5.8 mphClear
6:35 AM36.1 °F35.2 °F97 %30.27 in7.0 miNorth (360°)5.8 mphClear
6:55 AM35.8 °F34.7 °F96 %30.28 in7.0 miNorth (360°)5.8 mphClear
7:35 AM35.8 °F33.8 °F92 %30.30 in7.0 miNorth (360°)4.6 mphClear
7:55 AM36.5 °F33.8 °F90 %30.31 in10.0 miNorth (10°)4.6 mphClear
8:15 AM36.9 °F33.8 °F89 %30.32 in10.0 miNorth (360°)5.8 mphClear
8:35 AM37.6 °F33.8 °F86 %30.33 in10.0 miNorth (360°)6.9 mphClear
8:55 AM40.1 °F34.3 °F80 %30.34 in10.0 miNorth (10°)6.9 mphClear
9:15 AM42.6 °F33.8 °F71 %30.35 in10.0 miNNE (20°)8.1 mphClear
9:35 AM44.1 °F32.7 °F64 %30.36 in10.0 miNNE (20°)9.2 mphClear
9:55 AM45.7 °F32.0 °F59 %30.37 in10.0 miNNE (30°)9.2 mphClear
10:15 AM47.7 °F32.0 °F55 %30.38 in10.0 miNNE (20°)10.4 mphClear
10:35 AM49.1 °F31.3 °F50 %30.38 in10.0 miNE (40°)9.2 mphClear
10:55 AM49.5 °F30.0 °F47 %30.38 in10.0 miNE (40°)9.2 mphClear
11:15 AM50.2 °F28.8 °F44 %30.38 in10.0 miNNE (30°)9.2 mph17.3 mphClear
11:35 AM50.5 °F28.6 °F43 %30.36 in10.0 miNE (50°)10.4 mph17.3 mphClear
11:55 AM49.6 °F29.1 °F45 %30.36 in10.0 miNE (50°)8.1 mph19.6 mphClear
12:15 PM50.0 °F31.1 °F48 %30.35 in10.0 miNE (40°)10.4 mph18.4 mphClear
12:35 PM49.6 °F30.6 °F48 %30.34 in10.0 miNNE (30°)11.5 mph19.6 mphClear
12:55 PM50.2 °F32.5 °F51 %30.35 in10.0 miENE (60°)9.2 mph16.1 mphClear
1:15 PM50.4 °F32.0 °F49 %30.35 in10.0 miENE (60°)10.4 mph17.3 mphClear
1:35 PM50.2 °F32.0 °F50 %30.35 in10.0 miENE (70°)8.1 mph18.4 mphClear
2:15 PM49.6 °F31.6 °F50 %30.36 in10.0 miENE (60°)6.9 mphClear
2:35 PM50.0 °F31.8 °F50 %30.37 in10.0 miENE (70°)8.1 mphClear
2:55 PM50.2 °F31.8 °F49 %30.37 in10.0 miEast (80°)6.9 mphClear
3:15 PM50.4 °F31.8 °F49 %30.38 in10.0 miENE (70°)5.8 mphClear
3:35 PM49.8 °F31.3 °F49 %30.38 in10.0 miEast (80°)5.8 mphClear
3:55 PM49.3 °F32.0 °F51 %30.37 in10.0 miENE (70°)4.6 mphClear
4:15 PM48.7 °F32.9 °F54 %30.38 in10.0 miENE (70°)6.9 mphClear
4:35 PM48.2 °F33.1 °F56 %30.38 in10.0 miENE (70°)5.8 mphClear
4:55 PM47.5 °F34.0 °F59 %30.40 in10.0 miEast (80°)4.6 mphClear
5:15 PM46.4 °F33.4 °F61 %30.40 in10.0 miEast (80°)5.8 mphClear
5:35 PM45.9 °F34.2 °F64 %30.40 in10.0 miENE (70°)3.5 mphClear
6:15 PM44.6 °F35.4 °F70 %30.41 in10.0 miENE (60°)3.5 mphClear
6:35 PM44.4 °F35.6 °F71 %30.42 in10.0 miENE (60°)3.5 mphClear
6:55 PM44.6 °F35.8 °F71 %30.42 in10.0 miNE (50°)3.5 mphClear
7:15 PM42.3 °F35.8 °F78 %30.42 in10.0 miNorth (10°)3.5 mphClear
7:35 PM41.5 °F35.6 °F79 %30.41 in10.0 miCalmClear
7:55 PM40.5 °F35.6 °F83 %30.41 in10.0 miCalmClear
8:15 PM40.5 °F35.6 °F83 %30.41 in10.0 miNNE (20°)4.6 mphClear
8:35 PM41.0 °F35.2 °F80 %30.41 in10.0 miNE (40°)3.5 mphClear
8:55 PM40.3 °F34.9 °F81 %30.41 in10.0 miCalmClear
9:15 PM41.4 °F34.9 °F78 %30.41 in10.0 miNNE (30°)3.5 mphClear
9:35 PM43.7 °F34.9 °F71 %30.41 in10.0 miENE (60°)5.8 mphClear
9:55 PM44.6 °F35.1 °F69 %30.40 in10.0 miNE (50°)8.1 mphClear
10:35 PM44.6 °F35.6 °F71 %30.39 in10.0 miNE (50°)5.8 mphClear
10:55 PM44.6 °F35.2 °F70 %30.39 in10.0 miNE (40°)5.8 mphClear
11:15 PM44.4 °F35.2 °F70 %30.39 in10.0 miNE (40°)5.8 mphClear
11:55 PM44.1 °F35.6 °F72 %30.38 in10.0 miNE (40°)6.9 mphClear
Hourly data recorded from KSUT, located miles away from Southport, North Carolina







STORIES FROM OUR PARTNERS